Home > Weather > Yuma > Past weeks

Flag for USA Past Weather in Yuma, Arizona, USA — Yesterday and Last 2 Weeks

Now
89 °F

Clear.


Feels Like: 87 °F
Forecast: 87 / 110 °F
Wind: 21 mph from South

Location: Yuma Marine Corps Air Station

Current Time: Jun 29, 2016 at 3:58:03 AM

Latest Report: Jun 29, 2016 at 2:57 AM


Visibility: 10 mi

Pressure: 29.74 "Hg

Humidity: 30%

Dew Point: 54 °F

Location of YumaLocation

Past Weather in Yuma — Graph

°F

Yuma Temperature Yesterday

Maximum temperature yesterday: 113 °F (at 3:57 PM)
Minimum temperature yesterday: 85 °F (at 5:57 AM)
Average temperature yesterday: 99 °F

High & Low Weather Summary for the Past Weeks

 TemperatureHumidityPressure
High119 °F (Jun 19, 3:57 PM)52% (Jun 24, 5:57 AM)29.94 "Hg (Jun 24, 5:57 AM)
Low72 °F (Jun 14, 3:57 AM)4% (Jun 19, 3:57 PM)29.62 "Hg (Jun 24, 5:57 PM)
Average94 °F22%29.78 "Hg
* Reported Jun 14 1:57 AM — Jun 29 1:57 AM, Yuma, Weather by CustomWeather, © 2016

Note: Actual official high and low records may vary slightly from our data, if they occured in-between our weather recording intervals... More about our weather records

Advertising

Yuma Weather History for the Previous 24 Hours

Scroll right to see more
 ConditionsComfort  
Time TempWeatherWind HumidityBarometerVisibility
1:57 AM
Wed, Jun 29
88 °FClear.10 mph33%29.73 "Hg10 mi
12:57 AM89 °FClear.10 mph34%29.73 "Hg10 mi
11:57 PM
Tue, Jun 28
93 °FClear.6 mph24%29.74 "Hg10 mi
10:57 PM93 °FPassing clouds.5 mph25%29.75 "Hg10 mi
9:57 PM94 °FPassing clouds.6 mph25%29.73 "Hg10 mi
8:57 PM98 °FPassing clouds.10 mph24%29.72 "Hg10 mi
7:57 PM103 °FPassing clouds.10 mph21%29.70 "Hg10 mi
6:57 PM108 °FPassing clouds.16 mph18%29.69 "Hg10 mi
5:57 PM112 °FPassing clouds.9 mph14%29.69 "Hg10 mi
4:57 PM113 °FPassing clouds.9 mph13%29.70 "Hg10 mi
3:57 PM113 °FPassing clouds.8 mph11%29.72 "Hg10 mi
2:57 PM112 °FScattered clouds.6 mph12%29.75 "Hg10 mi
1:57 PM110 °FScattered clouds.9 mph13%29.78 "Hg10 mi
12:57 PM108 °FPassing clouds.7 mph14%29.80 "Hg10 mi
11:57 AM106 °FPassing clouds.12 mph17%29.83 "Hg10 mi
10:57 AM103 °FPassing clouds.10 mph20%29.84 "Hg10 mi
9:57 AM100 °FSunny.14 mph21%29.85 "Hg10 mi
8:57 AM95 °FSunny.13 mph27%29.85 "Hg10 mi
7:57 AM91 °FPassing clouds.15 mph37%29.85 "Hg10 mi
6:57 AM86 °FSunny.14 mph51%29.83 "Hg10 mi
5:57 AM85 °FSunny.14 mph50%29.82 "Hg10 mi
4:57 AM89 °FClear.5 mph31%29.79 "Hg10 mi
3:57 AM89 °FClear.5 mph35%29.78 "Hg10 mi
Weather by CustomWeather, © 2016

See weather overviewHow to use our weather pages